User: anonymous   Login
Location: Presov
(49.0000°N, 21.2500°E)
Time: 07:37:32
(UTC+02:00)
Language:

ISS - Orbit

View from above orbital plane
View from above orbital plane
View from above satellite
View from above satellite

Ground track
Ground track

The orbit data is extracted from the following two-line orbital elements,

1 25544U 98067A   25190.02470325  .00008280  00000-0  15053-3 0  9995
2 25544  51.6358 198.8275 0002118 354.0350 217.6565 15.50447055518543
Epoch (UTC): 09 July 2025 00:35:34
Eccentricity: 0.0002118
inclination: 51.6358°
perigee height: 414 km
apogee height: 417 km
right ascension of ascending node: 198.8275°
argument of perigee: 354.0350°
revolutions per day: 15.50447055
mean anomaly at epoch: 217.6565°
orbit number at epoch: 51854

The dashed part of the orbit path shows where the satellite is in the earth's shadow,  

DLR